| time (UTC) | temp F | wind direction | speed MPH | gust MPH | rain 1hr in | rain 24hr in | rain mn in | humidity % | barometer mb |
| 20260503220019 | 57 | 270 | 2.0 | 9.0 | 0.12 | 0.47 | 0.31 | 90 | 1013.4 |
| 20260503215018 | 57 | 270 | 1.0 | 7.0 | 0.12 | 0.47 | 0.31 | 90 | 1013.3 |
| 20260503214018 | 57 | 270 | 1.0 | 6.0 | 0.12 | 0.47 | 0.31 | 90 | 1013.3 |
| 20260503213019 | 57 | 270 | 2.0 | 8.0 | 0.12 | 0.47 | 0.31 | 89 | 1013.2 |
| 20260503212018 | 57 | 270 | 1.0 | 4.0 | 0.11 | 0.46 | 0.31 | 90 | 1013.2 |
| 20260503211017 | 57 | 293 | 4.0 | 12.0 | 0.02 | 0.36 | 0.20 | 89 | 1013.1 |
| 20260503210018 | 57 | 270 | 2.0 | 7.0 | 0.01 | 0.35 | 0.20 | 90 | 1012.9 |
| 20260503205019 | 57 | 293 | 3.0 | 12.0 | 0.01 | 0.35 | 0.20 | 89 | 1012.9 |
| 20260503204018 | 57 | 293 | 2.0 | 8.0 | 0.01 | 0.35 | 0.20 | 89 | 1012.7 |
| 20260503203019 | 57 | 293 | 3.0 | 10.0 | 0.01 | 0.35 | 0.20 | 89 | 1012.7 |
| 20260503202017 | 57 | 270 | 3.0 | 11.0 | 0.01 | 0.39 | 0.20 | 89 | 1012.5 |
| 20260503201017 | 57 | 270 | 2.0 | 6.0 | 0.03 | 0.38 | 0.19 | 89 | 1012.3 |
| 20260503200018 | 57 | 293 | 2.0 | 7.0 | 0.03 | 0.38 | 0.19 | 89 | 1012.3 |
| 20260503195019 | 57 | 315 | 2.0 | 5.0 | 0.03 | 0.38 | 0.19 | 89 | 1012.4 |
| 20260503194017 | 57 | 293 | 2.0 | 8.0 | 0.03 | 0.38 | 0.19 | 89 | 1012.4 |
| 20260503193017 | 57 | 225 | 4.0 | 12.0 | 0.03 | 0.38 | 0.19 | 88 | 1012.4 |
| 20260503192018 | 57 | 270 | 3.0 | 10.0 | 0.03 | 0.38 | 0.19 | 88 | 1012.2 |
| 20260503191017 | 57 | 270 | 3.0 | 9.0 | 0.00 | 0.35 | 0.16 | 88 | 1012.1 |
| 20260503190038 | 57 | 293 | 3.0 | 10.0 | 0.00 | 0.35 | 0.16 | 88 | 1012.2 |
| 20260503185017 | 57 | 270 | 4.0 | 15.0 | 0.00 | 0.35 | 0.16 | 89 | 1012.1 |
| 20260503184019 | 57 | 270 | 3.0 | 9.0 | 0.00 | 0.35 | 0.16 | 89 | 1012.1 |
| 20260503183018 | 57 | 293 | 2.0 | 7.0 | 0.00 | 0.35 | 0.16 | 89 | 1012.0 |
| 20260503182019 | 56 | 293 | 2.0 | 6.0 | 0.00 | 0.43 | 0.16 | 89 | 1012.0 |
| 20260503181017 | 56 | 293 | 2.0 | 4.0 | 0.00 | 0.43 | 0.16 | 89 | 1012.1 |
| 20260503180017 | 56 | 248 | 2.0 | 10.0 | 0.00 | 0.43 | 0.16 | 89 | 1012.2 |
| 20260503175019 | 56 | 293 | 3.0 | 12.0 | 0.00 | 0.43 | 0.16 | 90 | 1012.3 |
| 20260503174017 | 56 | 293 | 2.0 | 9.0 | 0.00 | 0.43 | 0.16 | 89 | 1012.3 |
| 20260503173017 | 56 | 293 | 3.0 | 8.0 | 0.00 | 0.43 | 0.16 | 89 | 1012.4 |
| 20260503172037 | 56 | 315 | 1.0 | 5.0 | 0.00 | 0.44 | 0.16 | 89 | 1012.5 |
| 20260503171017 | 56 | 270 | 2.0 | 6.0 | 0.01 | 0.44 | 0.16 | 89 | 1012.5 |
| 20260503131037 | 56 | 293 | 2.0 | 9.0 | 0.00 | 0.28 | 0.28 | 87 | 1013.3 |
| 20260503081017 | 60 | 270 | 3.0 | 10.0 | 0.00 | 0.17 | 0.16 | 76 | 1012.0 |
| 20260503072016 | 60 | 315 | 4.0 | 12.0 | 0.00 | 0.19 | 0.16 | 77 | 1011.9 |
| 20260503071016 | 60 | 293 | 5.0 | 15.0 | 0.01 | 0.19 | 0.16 | 77 | 1012.0 |
| 20260503055016 | 64 | 315 | 5.0 | 16.0 | 0.00 | 0.20 | 0.13 | 64 | 1011.5 |
| 20260503054037 | 65 | 293 | 7.0 | 14.0 | 0.00 | 0.20 | 0.13 | 63 | 1011.6 |
| 20260503053016 | 66 | 293 | 7.0 | 18.0 | 0.00 | 0.20 | 0.13 | 61 | 1011.4 |
| 20260503052018 | 66 | 315 | 6.0 | 14.0 | 0.00 | 0.28 | 0.13 | 60 | 1011.5 |
| 20260503051016 | 66 | 293 | 6.0 | 13.0 | 0.00 | 0.28 | 0.13 | 60 | 1011.4 |
| 20260503050016 | 66 | 293 | 8.0 | 21.0 | 0.00 | 0.28 | 0.13 | 60 | 1011.5 |
| 20260503045016 | 65 | 293 | 9.0 | 17.0 | 0.00 | 0.28 | 0.13 | 61 | 1011.4 |
| 20260503044016 | 64 | 293 | 8.0 | 19.0 | 0.00 | 0.28 | 0.13 | 63 | 1011.5 |
| 20260503043016 | 64 | 293 | 7.0 | 14.0 | 0.00 | 0.28 | 0.13 | 62 | 1011.5 |
| 20260503042017 | 65 | 315 | 7.0 | 16.0 | 0.00 | 0.34 | 0.13 | 62 | 1011.4 |
| 20260503041016 | 65 | 315 | 6.0 | 15.0 | 0.00 | 0.34 | 0.13 | 61 | 1011.5 |
| 20260503040036 | 65 | 315 | 6.0 | 14.0 | 0.00 | 0.34 | 0.13 | 61 | 1011.7 |
| 20260503035018 | 65 | 293 | 4.0 | 10.0 | 0.00 | 0.34 | 0.13 | 63 | 1011.7 |
| 20260503034017 | 65 | 315 | 6.0 | 15.0 | 0.00 | 0.34 | 0.13 | 63 | 1011.8 |
| 20260503033016 | 65 | 293 | 7.0 | 16.0 | 0.00 | 0.34 | 0.13 | 64 | 1011.8 |
| 20260503032016 | 64 | 293 | 5.0 | 12.0 | 0.00 | 0.37 | 0.13 | 67 | 1011.9 |
| 20260503031016 | 62 | 315 | 6.0 | 16.0 | 0.00 | 0.37 | 0.13 | 68 | 1011.9 |
| 20260503030038 | 63 | 315 | 8.0 | 22.0 | 0.00 | 0.37 | 0.13 | 66 | 1011.9 |
| 20260503025017 | 63 | 293 | 7.0 | 16.0 | 0.00 | 0.37 | 0.13 | 67 | 1011.9 |
| 20260503024038 | 63 | 293 | 7.0 | 14.0 | 0.00 | 0.37 | 0.13 | 68 | 1011.9 |
| 20260503023018 | 63 | 315 | 5.0 | 13.0 | 0.00 | 0.37 | 0.13 | 71 | 1012.2 |
| 20260503022018 | 62 | 315 | 6.0 | 14.0 | 0.00 | 0.37 | 0.13 | 72 | 1012.1 |
| 20260503021038 | 62 | 315 | 8.0 | 19.0 | 0.00 | 0.37 | 0.13 | 72 | 1012.3 |
| 20260503020019 | 61 | 293 | 7.0 | 16.0 | 0.00 | 0.37 | 0.13 | 72 | 1012.4 |
| 20260503015018 | 61 | 315 | 7.0 | 15.0 | 0.00 | 0.37 | 0.13 | 71 | 1012.3 |
| 20260503014018 | 62 | 315 | 7.0 | 16.0 | 0.00 | 0.37 | 0.13 | 71 | 1012.3 |
| 20260503013040 | 61 | 293 | 7.0 | 17.0 | 0.00 | 0.37 | 0.13 | 72 | 1012.4 |
| 20260503012018 | 60 | 338 | 9.0 | 17.0 | 0.00 | 0.37 | 0.13 | 72 | 1012.4 |
| 20260503011018 | 60 | 315 | 4.0 | 14.0 | 0.00 | 0.37 | 0.13 | 73 | 1012.5 |
| 20260503010018 | 60 | 338 | 8.0 | 17.0 | 0.00 | 0.37 | 0.13 | 73 | 1012.6 |
| 20260503005017 | 60 | 315 | 6.0 | 15.0 | 0.00 | 0.37 | 0.13 | 74 | 1012.5 |
| 20260503004018 | 60 | 315 | 5.0 | 13.0 | 0.00 | 0.37 | 0.13 | 75 | 1012.6 |
| 20260503003018 | 60 | 315 | 4.0 | 12.0 | 0.00 | 0.37 | 0.13 | 76 | 1012.5 |
| 20260503002018 | 59 | 315 | 6.0 | 14.0 | 0.00 | 0.39 | 0.13 | 76 | 1012.6 |
| 20260503001018 | 60 | 315 | 4.0 | 11.0 | 0.00 | 0.39 | 0.13 | 78 | 1012.6 |
| 20260503000018 | 58 | 315 | 3.0 | 12.0 | 0.00 | 0.39 | 0.13 | 80 | 1012.7 |
| 20260502235018 | 58 | 338 | 4.0 | 11.0 | 0.00 | 0.39 | 0.13 | 79 | 1012.7 |
| 20260502234018 | 58 | 0 | 5.0 | 11.0 | 0.00 | 0.39 | 0.13 | 81 | 1012.8 |
| 20260502233018 | 57 | 0 | 4.0 | 10.0 | 0.00 | 0.39 | 0.13 | 82 | 1012.8 |
| 20260502232018 | 57 | 315 | 4.0 | 13.0 | 0.00 | 0.41 | 0.13 | 84 | 1012.8 |
| 20260502231018 | 56 | 0 | 4.0 | 10.0 | 0.00 | 0.41 | 0.13 | 85 | 1012.7 |
| 20260502230018 | 55 | 338 | 2.0 | 5.0 | 0.00 | 0.41 | 0.13 | 86 | 1012.7 |
| 20260502225019 | 55 | 0 | 4.0 | 12.0 | 0.00 | 0.41 | 0.13 | 87 | 1012.7 |
| 20260502224018 | 54 | 0 | 6.0 | 14.0 | 0.00 | 0.41 | 0.13 | 87 | 1012.5 |
| 20260502223017 | 54 | 315 | 4.0 | 12.0 | 0.00 | 0.41 | 0.13 | 87 | 1012.6 |
| 20260502222018 | 54 | 45 | 6.0 | 13.0 | 0.00 | 0.41 | 0.13 | 88 | 1012.5 |
| 20260502221018 | 54 | 0 | 5.0 | 10.0 | 0.00 | 0.41 | 0.13 | 88 | 1012.4 |